INTELSAT 701 1 22871U 93066A 24110.24101519 -.00000251 00000-0 00000-0 0 9994 2 22871 9.1685 52.8604 0004396 13.8070 182.5154 0.99322154111269 INTELSAT 26 (JCSAT 4) 1 24732U 97007A 24109.96880373 -.00000060 00000-0 00000-0 0 9998 2 24732 11.0703 34.9327 0009401 280.4867 266.7072 0.98907800 99244 GALAXY 25 (TELSTAR 5) 1 24812U 97026A 24110.54219956 -.00000003 00000-0 00000-0 0 9994 2 24812 5.3918 76.7212 0012039 321.7610 33.7708 0.99094721 98405 INTELSAT 5 (PAS 5) 1 24916U 97046A 24110.63724583 -.00000060 00000-0 00000-0 0 9991 2 24916 8.6771 55.9485 0001283 310.1646 237.6558 1.00271649 97714 INTELSAT 805 1 25371U 98037A 24110.02271521 -.00000062 00000-0 00000-0 0 9992 2 25371 5.9091 74.5868 0010997 128.7922 23.1164 0.99479929 94513 AFRISTAR 1 25515U 98063A 24110.10264929 -.00000237 00000-0 00000-0 0 9998 2 25515 8.4890 56.4546 0003238 24.1958 142.4285 0.99009925 92745 INTELSAT 8 (PAS 8) 1 25522U 98065A 24110.57439678 -.00000145 00000-0 00000-0 0 9992 2 25522 7.1090 71.5668 0280861 284.0981 269.9340 0.95186527 37304 GALAXY 11 1 26038U 99071A 24110.63841641 -.00000052 00000-0 00000-0 0 9994 2 26038 4.7077 79.9594 0001094 220.1746 304.2094 1.00273501 89171 SIRIUS 1 1 26390U 00035A 24110.21646583 .00000026 00000-0 00000-0 0 9999 2 26390 59.3620 175.7014 0002561 286.3191 76.3969 1.57877563 59414 INTELSAT 9 (PAS 9) 1 26451U 00043A 24110.10378059 -.00000113 00000-0 00000-0 0 9992 2 26451 8.6609 56.1467 0003042 309.9828 222.9961 1.00374061 36233 INTELSAT 12 (PAS 12) 1 26590U 00068A 24110.38141737 -.00000167 00000-0 00000-0 0 9993 2 26590 6.3665 73.0356 0010183 202.9247 9.6314 0.99029040 43680 INTELSAT 1R (PAS 1R) 1 26608U 00072A 24110.62951125 -.00000136 00000-0 00000-0 0 9991 2 26608 6.1177 73.2654 0000958 333.3564 185.3324 1.00271465 33415 INTELSAT 10 (PAS 10) 1 26766U 01019A 24110.60727514 -.00000276 00000-0 00000-0 0 9994 2 26766 7.1858 67.2021 0003186 321.6266 181.0197 1.00155930 37719 INTELSAT 901 1 26824U 01024A 24110.31620269 -.00000204 00000-0 00000-0 0 9993 2 26824 0.0377 67.7169 0000980 339.5249 246.9982 1.00271926 15070 INTELSAT 902 1 26900U 01039A 24110.38333186 -.00000281 00000-0 00000-0 0 9995 2 26900 4.1119 81.3001 0003603 341.3235 233.2581 1.00271780 82786 DIRECTV 4S 1 26985U 01052A 24110.60122073 -.00000293 00000-0 00000-0 0 9992 2 26985 4.2356 81.0352 0004076 9.3095 106.2586 0.99266327 43249 INTELSAT 904 1 27380U 02007A 24110.31585459 -.00000212 00000-0 00000-0 0 9993 2 27380 4.9324 78.4870 0003125 313.7009 259.9169 1.00271255 43856 INTELSAT 903 1 27403U 02016A 24110.60999028 .00000064 00000-0 00000-0 0 9996 2 27403 5.7228 75.3959 0006316 333.1641 264.2422 0.99018817 37585 DIRECTV 5 (TEMPO 1) 1 27426U 02023A 24110.61322278 -.00000055 00000-0 00000-0 0 9998 2 27426 2.8509 85.1083 0003454 308.1007 285.6237 1.00272302 80218 INTELSAT 905 1 27438U 02027A 24110.31681185 -.00000183 00000-0 00000-0 0 9999 2 27438 4.7576 79.1495 0002828 302.9007 275.4172 1.00272308 43458 GALAXY 3C 1 27445U 02030A 24110.51757216 -.00000152 00000-0 00000-0 0 9998 2 27445 1.6915 87.5933 0002283 14.8226 197.1606 1.00272182 38586 INTELSAT 906 1 27513U 02041A 24110.54924838 .00000016 00000-0 00000-0 0 9993 2 27513 3.7870 82.5581 0003100 313.1947 74.2541 1.00272581 79124 INTELSAT 907 1 27683U 03007A 24110.25224110 -.00000100 00000-0 00000-0 0 9993 2 27683 3.7051 81.6526 0007525 25.7324 202.2189 0.99161883 77366 GALAXY 12 1 27715U 03013B 24110.38115630 -.00000156 00000-0 00000-0 0 9997 2 27715 4.9715 78.2732 0004152 299.5631 266.2887 0.98985217 44158 GALAXY 23 (TELSTAR 13) 1 27854U 03034A 24110.60468866 .00000013 00000-0 00000-0 0 9992 2 27854 1.1543 89.7237 0002795 306.6821 268.5862 1.00272024 75835 HORIZONS 1 (GALAXY 13) 1 27954U 03044A 24110.57695563 .00000131 00000-0 00000-0 0 9997 2 27954 0.0145 247.6067 0000926 158.9223 219.3104 1.00270673 38667 DIRECTV 7S 1 28238U 04016A 24110.45898803 -.00000230 00000-0 00000-0 0 9993 2 28238 3.0791 84.4257 0005218 64.3816 195.0741 0.98920060 72997 INTELSAT 1002 1 28358U 04022A 24110.24989149 -.00000013 00000-0 00000-0 0 9993 2 28358 0.0181 178.7998 0000785 205.0637 272.9385 1.00271416 72647 XM-3 1 28626U 05008A 24110.51957368 -.00000206 00000-0 00000-0 0 9998 2 28626 0.0208 229.9707 0000333 27.6835 52.3843 1.00269606 34712 SPACEWAY 1 1 28644U 05015A 24110.58672181 .00000004 00000-0 00000-0 0 9995 2 28644 4.6637 79.8740 0002786 85.2726 342.5531 0.98489298 38416 DIRECTV 8 1 28659U 05019A 24110.60601853 .00000000 00000-0 00000-0 0 9992 2 28659 0.0355 78.7759 0002914 307.2297 281.2923 1.00272286 69161 GALAXY 28 (IA 8) 1 28702U 05022A 24110.51879049 -.00000185 00000-0 00000-0 0 9994 2 28702 1.2584 88.5470 0002446 221.9065 355.4074 1.00270600 44073 GALAXY 14 1 28790U 05030A 24110.54306978 .00000156 00000-0 00000-0 0 9996 2 28790 2.9803 84.4866 0001641 286.5430 65.5020 1.00269597 68399 GALAXY 15 1 28884U 05041A 24110.38846620 -.00000233 00000-0 00000-0 0 9994 2 28884 1.4781 84.7689 0011549 117.5467 121.1699 0.98942875 67639 SPACEWAY 2 1 28903U 05046B 24110.58727097 .00000105 00000-0 00000-0 0 9996 2 28903 3.4687 80.8977 0000187 35.5094 164.2830 1.00271167 43436 GALAXY 16 1 29236U 06023A 24110.51678896 -.00000128 00000-0 00000-0 0 9993 2 29236 0.0169 234.4203 0002699 160.8673 259.8405 1.00272130 65061 DIRECTV 9S 1 29494U 06043A 24110.59034240 -.00000114 00000-0 00000-0 0 9993 2 29494 0.3786 89.3888 0002612 317.0031 273.0931 1.00271977 43471 XM-4 1 29520U 06049A 24110.58518561 .00000010 00000-0 00000-0 0 9995 2 29520 0.7798 92.1837 0006190 291.3714 122.3808 0.98811399 43553 GALAXY 17 1 31307U 07016B 24110.51957368 -.00000206 00000-0 00000-0 0 9999 2 31307 0.9680 89.9829 0002987 309.8203 270.3407 1.00271354 61895 DIRECTV 10 1 31862U 07032A 24110.59019316 -.00000104 00000-0 00000-0 0 9990 2 31862 0.0094 171.9582 0000428 112.2894 33.5919 1.00272225 37684 SPACEWAY 3 1 32018U 07036A 24110.52392483 -.00000169 00000-0 00000-0 0 9991 2 32018 1.9472 86.2168 0002266 353.6230 254.3443 0.99139152 38632 INTELSAT 11 (PAS 11) 1 32253U 07044B 24110.45629035 -.00000268 00000-0 00000-0 0 9999 2 32253 1.5125 88.4188 0003250 307.0797 293.8023 1.00272892 60588 HORIZONS 2 1 32388U 07063B 24110.52183628 -.00000254 00000-0 00000-0 0 9995 2 32388 0.5598 90.0297 0001969 302.4150 289.7048 1.00269962 59906 DIRECTV 11 1 32729U 08013A 24110.51678896 -.00000127 00000-0 00000-0 0 9994 2 32729 0.0196 110.7851 0000693 42.5867 141.6018 1.00269643 37680 GALAXY 18 1 32951U 08024A 24110.60207556 .00000024 00000-0 00000-0 0 9999 2 32951 0.0157 210.1557 0003086 181.0772 270.6861 1.00271724 37946 INTELSAT 25(PROTOSTAR 1) 1 33153U 08034A 24110.45855292 -.00000225 00000-0 00000-0 0 9998 2 33153 0.6672 89.6912 0003163 307.9547 303.9757 1.00271347 57787 GALAXY 19 1 33376U 08045A 24110.51722407 -.00000141 00000-0 00000-0 0 9992 2 33376 0.0181 265.6692 0002773 123.2835 268.3411 1.00272517 56992 SIRIUS FM-5 1 35493U 09034A 24110.51931262 -.00000202 00000-0 00000-0 0 9992 2 35493 0.0230 269.0491 0000956 309.9861 89.8728 1.00272853 38739 INTELSAT 14 1 36097U 09064A 24110.38437613 -.00000275 00000-0 00000-0 0 9992 2 36097 0.0056 170.3734 0002448 213.5675 277.4058 1.00273738 52696 INTELSAT 15 1 36106U 09067A 24110.58507794 -.00000187 00000-0 00000-0 0 9998 2 36106 0.0197 245.4554 0002213 140.1897 118.3021 1.00273810 33321 DIRECTV 12 1 36131U 09075A 24110.59019332 -.00000105 00000-0 00000-0 0 9992 2 36131 0.0425 61.5854 0000835 263.2084 353.1214 1.00272292 38653 INTELSAT 16 1 36397U 10006A 24110.52131413 -.00000246 00000-0 00000-0 0 9996 2 36397 0.0209 117.2557 0002189 297.3891 264.9287 1.00269866 51741 XM-5 1 37185U 10053A 24110.60954969 -.00000024 00000-0 00000-0 0 9996 2 37185 0.0227 270.3936 0000572 329.4790 72.5598 1.00273610 49576 INTELSAT 17 1 37238U 10065B 24110.54959647 -.00000003 00000-0 00000-0 0 9996 2 37238 0.0138 241.3791 0002722 162.6877 67.9187 1.00270865 45336 INTELSAT NEW DAWN 1 37392U 11016A 24110.54298275 .00000154 00000-0 00000-0 0 9993 2 37392 0.0170 250.0137 0001675 160.9694 25.4142 1.00273133 45373 INTELSAT 18 1 37834U 11056A 24110.54817779 .00000051 00000-0 00000-0 0 9990 2 37834 0.0194 229.1006 0001898 164.0099 192.3679 1.00269553 45902 INTELSAT 22 1 38098U 12011A 24110.14493870 -.00000062 00000-0 00000-0 0 9996 2 38098 0.0187 258.6114 0001804 144.4532 288.9517 1.00271944 43891 INTELSAT 19 1 38356U 12030A 24110.63707434 -.00000058 00000-0 00000-0 0 9997 2 38356 0.0138 213.2557 0003060 177.0838 213.2298 1.00268745 42531 INTELSAT 20 1 38740U 12043A 24110.55011861 -.00000026 00000-0 00000-0 0 9996 2 38740 0.0215 139.3198 0001339 59.6292 275.7145 1.00271569 42845 INTELSAT 21 1 38749U 12045A 24110.45333156 -.00000286 00000-0 00000-0 0 9998 2 38749 0.0240 264.7204 0001787 120.1401 288.3762 1.00273236 42619 INTELSAT 23 1 38867U 12057A 24110.45437583 -.00000286 00000-0 00000-0 0 9991 2 38867 0.0194 236.2873 0001267 176.8642 265.4782 1.00270360 42031 SIRIUS FM-6 1 39360U 13058A 24110.17480030 -.00000020 00000-0 00000-0 0 9992 2 39360 0.0186 267.9048 0000723 333.1094 273.5196 1.00274206 38151 INTELSAT 30 1 40271U 14062A 24109.51533097 -.00000156 00000-0 00000-0 0 9999 2 40271 0.0094 233.8644 0001188 115.6268 308.0850 1.00271448 34677 INTELSAT 34 1 40874U 15039A 24109.70466382 -.00000290 00000-0 00000-0 0 9995 2 40874 0.0334 314.7062 0000522 314.9138 135.8483 1.00270668 31709 INTELSAT 29E 1 41308U 16004A 24110.58672190 -.00000273 00000-0 00000-0 0 9996 2 41308 4.5093 79.7192 0007382 357.7509 69.5878 1.00633230 30341 INTELSAT 31 1 41581U 16035A 24109.87330741 -.00000154 00000-0 00000-0 0 9994 2 41581 0.0101 216.3112 0001676 344.9241 225.5537 1.00270389 28779 INTELSAT 36 1 41747U 16053A 24109.54787741 -.00000029 00000-0 00000+0 0 9998 2 41747 0.0043 302.6362 0000995 59.2350 110.9872 1.00271317 28023 INTELSAT 33E 1 41748U 16053B 24110.54837816 .00000047 00000-0 00000-0 0 9990 2 41748 0.0190 265.6226 0001683 128.7263 71.1795 1.00273019 28342 INTELSAT 32E 1 41945U 17007B 24109.45406707 -.00000274 00000-0 00000-0 0 9991 2 41945 0.0157 134.0624 0000519 211.1314 342.1340 1.00275054 26308 INTELSAT 35E 1 42818U 17041A 24110.38646469 -.00000240 00000-0 00000-0 0 9997 2 42818 0.0187 216.5277 0002178 166.6061 289.4670 1.00271163 24907 INTELSAT 37E 1 42950U 17059A 24110.44823424 -.00000142 00000-0 00000-0 0 9999 2 42950 0.0181 180.7699 0002283 219.6882 310.9200 1.00273362 24154